Weather History for Ramona, CA

Change the Weather History Date:

Wednesday, November 13, 2013

  Actual Average Record
Temperature  
Mean Temperature 68 °F 56 °F  
Max Temperature 92 °F 72 °F 92 °F (2013)
Min Temperature 43 °F 41 °F 29 °F (2000)
Degree Days  
Heating Degree Days 0 9  
Month to date heating degree days 87 95  
Since 1 July heating degree days 239 214  
Cooling Degree Days 3 0  
Month to date cooling degree days 4 4  
Year to date cooling degree days 897 848  
Growing Degree Days 18 (Base 50)    
Moisture  
Dew Point 33 °F    
Average Humidity 43    
Maximum Humidity 76    
Minimum Humidity 9    
Precipitation  
Precipitation 0.00 in 0.04 in 0.34 in (1997)
Month to date precipitation 0.00 0.54  
Year to date precipitation 6.21 13.16  
Since 1 July precipitation 1.71 1.83  
Snow  
Snow 0.00 in - - ()
Month to date snowfall 0.0  
Year to date snowfall 0.0  
Since 1 July snowfall 0.0  
Snow Depth 0.00 in    
Sea Level Pressure  
Sea Level Pressure 29.97 in    
Wind  
Wind Speed 4 mph (NE)    
Max Wind Speed 14 mph    
Max Gust Speed 17 mph    
Visibility 10 miles    
Events      
T = Trace of Precipitation, MM = Missing Value Source: NWS Daily Summary

Daily Weather History Graph

Daily Weather History Graph

Search for Another Location

Airport:

Trip Planner

Search our weather history database for the weather conditions in past years. The results will help you decide how hot, cold, wet, or windy it might be!

Date:

Astronomy

Nov. 13, 2013 Rise Set
Actual Time 6:16 AM PST 4:46 PM PST
Civil Twilight 5:50 AM PST 5:13 PM PST
Nautical Twilight 5:20 AM PST 5:42 PM PST
Astronomical Twilight 4:51 AM PST 6:12 PM PST
Moon 2:26 PM PST (11/13) 2:26 AM PST (11/13)
Length of Visible Light 11h 22m
Length of Day
10h 30m
Waxing Gibbous, 85% of the Moon is Illuminated
Nov 13
Waxing Gibbous
Nov 17
Full
Nov 25
Last Quarter
Dec 2
New
Dec 9
First Quarter

Hourly Weather History & Observations

Time (PST) Temp. Dew Point Humidity Pressure Visibility Wind Dir Wind Speed Gust Speed Precip Events Conditions
12:53 AM 46.0 °F 39.0 °F 76% 30.05 in 10.0 mi Calm Calm - N/A   Clear
1:53 AM 46.0 °F 37.9 °F 73% 30.05 in 10.0 mi Calm Calm - N/A   Clear
2:53 AM 45.0 °F 37.0 °F 74% 30.04 in 10.0 mi Calm Calm - N/A   Clear
3:53 AM 45.0 °F 37.0 °F 74% 30.03 in 10.0 mi Calm Calm - N/A   Clear
4:53 AM 44.1 °F 36.0 °F 73% 30.03 in 10.0 mi Calm Calm - N/A   Clear
5:53 AM 44.1 °F 36.0 °F 73% 30.03 in 10.0 mi Calm Calm - N/A   Clear
6:53 AM 48.9 °F 37.0 °F 64% 30.02 in 10.0 mi Calm Calm - N/A   Clear
7:53 AM 66.9 °F 41.0 °F 39% 30.03 in 10.0 mi Calm Calm - N/A   Clear
8:53 AM 84.0 °F 28.0 °F 13% 30.01 in 10.0 mi East 9.2 mph - N/A   Clear
9:53 AM 87.1 °F 25.0 °F 10% 30.00 in 10.0 mi ENE 11.5 mph - N/A   Clear
10:53 AM 89.1 °F 25.0 °F 10% 29.97 in 10.0 mi Variable 3.5 mph - N/A   Clear
11:53 AM 89.1 °F 24.1 °F 9% 29.94 in 10.0 mi East 4.6 mph - N/A   Clear
12:53 PM 91.0 °F 24.1 °F 9% 29.92 in 10.0 mi Variable 3.5 mph - N/A   Clear
1:53 PM 89.1 °F 35.1 °F 15% 29.91 in 10.0 mi West 11.5 mph - N/A   Clear
2:53 PM 87.1 °F 36.0 °F 16% 29.90 in 10.0 mi West 11.5 mph - N/A   Clear
3:53 PM 86.0 °F 28.9 °F 13% 29.91 in 10.0 mi ENE 10.4 mph - N/A   Clear
4:53 PM 79.0 °F 30.9 °F 17% 29.91 in 10.0 mi NNE 4.6 mph - N/A   Clear
5:53 PM 73.9 °F 30.9 °F 21% 29.93 in 10.0 mi NE 6.9 mph - N/A   Clear
6:53 PM 70.0 °F 33.1 °F 26% 29.94 in 10.0 mi NE 8.1 mph - N/A   Clear
7:53 PM 64.9 °F 33.1 °F 31% 29.95 in 10.0 mi Calm Calm - N/A   Clear
8:53 PM 59.0 °F 34.0 °F 39% 29.94 in 10.0 mi Calm Calm - N/A   Clear
9:53 PM 57.0 °F 34.0 °F 42% 29.93 in 10.0 mi Calm Calm - N/A   Clear
10:53 PM 55.9 °F 34.0 °F 44% 29.93 in 10.0 mi NE 4.6 mph - N/A   Clear
11:53 PM 57.9 °F 35.1 °F 42% 29.92 in 10.0 mi Calm Calm - N/A   Clear